Location: Vinland
(47.7731°N, 122.6974°W)
Time: 10:46:55
(UTC+00:00)

Transit 2A - Visible Passes

Search period start: 30 March 2023 00:00
Search period end: 09 April 2023 00:00
Orbit: 591 x 964 km, 66.7° (Epoch: 29 March)

Date Brightness Start Highest point End Pass type
(mag) Time Alt. Az. Time Alt. Az. Time Alt. Az.
30 Mar 8.7 10:19:25 10° ESE 10:20:50 11° E 10:22:17 10° E visible
30 Mar 6.5 11:59:11 23° SSW 12:02:44 66° ESE 12:08:45 10° NE visible
31 Mar 7.0 11:25:46 29° S 11:28:13 47° ESE 11:33:59 10° NE visible
31 Mar 7.0 13:06:15 10° WSW 13:11:35 40° NW 13:17:23 10° NNE visible
01 Apr 7.4 10:52:17 29° SE 10:53:46 34° ESE 10:59:06 10° NE visible
01 Apr 6.6 12:32:45 19° WSW 12:36:46 51° NW 12:42:47 10° NNE visible
02 Apr 7.8 10:18:45 24° ESE 10:19:22 24° ESE 10:24:05 10° NE visible
02 Apr 6.3 11:59:12 31° SW 12:02:01 68° NW 12:08:11 10° NNE visible
03 Apr 8.3 09:45:09 17° ESE 09:45:09 17° ESE 09:48:46 10° ENE visible
03 Apr 6.2 11:25:37 48° SW 11:27:21 89° WNW 11:33:32 10° NE visible
03 Apr 7.7 13:06:38 10° W 13:11:27 26° NNW 13:16:36 10° NNE visible
04 Apr 8.7 09:11:31 11° E 09:11:31 11° E 09:12:42 10° E visible
04 Apr 6.3 10:51:58 60° SSE 10:52:44 68° ESE 10:58:49 10° NE visible
04 Apr 7.4 12:32:25 15° W 12:36:31 31° NW 12:42:01 10° NNE visible
05 Apr 6.8 10:18:16 49° ESE 10:18:16 49° ESE 10:24:04 10° NE visible
05 Apr 7.1 11:58:43 24° W 12:01:37 39° NW 12:07:26 10° NNE visible
06 Apr 7.4 09:44:33 34° E 09:44:33 34° E 09:49:11 10° NE visible
06 Apr 6.7 11:25:00 38° W 11:26:48 51° NW 11:32:51 10° NNE visible
06 Apr 8.2 13:07:28 10° WNW 13:11:34 19° NNW 13:15:50 10° NNE visible
07 Apr 8.0 09:10:47 23° E 09:10:47 23° E 09:14:11 10° NE visible
07 Apr 6.3 10:51:13 59° W 10:52:02 66° NW 10:58:14 10° NNE visible
07 Apr 8.0 12:32:01 10° WNW 12:36:30 22° NNW 12:41:14 10° NNE visible
08 Apr 8.5 08:36:58 15° E 08:36:58 15° E 08:38:54 10° ENE visible
08 Apr 6.2 10:17:25 87° NNW 10:17:25 87° NNW 10:23:34 10° NE visible
08 Apr 7.8 11:57:52 15° W 12:01:29 26° NNW 12:06:38 10° NNE visible
